Location: Ku?niki
(51.4449°N, 17.8974°E)
Time: 00:17:02
(UTC+00:00)

Cosmos 1844 Rocket - Pass Details

Date: 18 September 2020
Orbit: 823 x 846 km, 71.0° (Epoch: 23 October)

Event Time Altitude Azimuth Distance (km) Brightness Sun altitude
Rises 17:57:56 0° 167° (SSE) 3,347 5.5 -10.5°
Reaches altitude 10° 18:00:47 10° 153° (SSE) 2,421 4.7 -10.9°
Maximum altitude 18:05:04 23° 102° (ESE) 1,684 3.7 -11.5°
Drops below altitude 10° 18:09:21 10° 52° (NE) 2,442 4.8 -12.2°
Sets 18:12:14 0° 38° (NE) 3,384 5.6 -12.6°
